Weather observations for the past three days for
Jacksonville Craig Municipal Airport
Imperial (Metric)
Date Time (edt) Wind (mph) Vis. (mi.) Weather Sky Cond. Temperature (ºF) Relative Humidity Wind Chill (°F) Heat Index (°F) Pressure Precipitation (in)
Air Dwpt 6 hour altimeter (in) sea level (mb) 1 hr 3 hr 6 hr
Max. Min.
13 02:53 N 3 10.00 Fair CLR 78.1 75 90% 81 29.86 1011.0
13 01:53 N 5 10.00 Fair CLR 78.1 75 82 78.1 90% 81 29.88 1011.8
13 00:53 E 3 10.00 Fair CLR 79 75 88% 83 29.9 1012.5
12 23:53 E 7 10.00 Mostly Cloudy FEW015 SCT021 BKN032 78.1 75 90% 81 29.9 1012.5
12 22:53 NE 7 10.00 Fair CLR 80.1 75 85% 85 29.9 1012.4
12 21:53 E 5 10.00 Fair CLR 81 73.9 79% 86 29.9 1012.6
12 20:53 E 9 10.00 Fair CLR 81 73.9 79% 86 29.92 1013.0
12 19:53 NE 10 10.00 A Few Clouds FEW017 FEW032 82 75 88 82 79% 89 29.9 1012.5
12 18:53 E 8 G 23 10.00 Mostly Cloudy BKN021 82.9 75 77% 90 29.91 1012.7
12 17:53 NE 15 G 26 10.00 A Few Clouds FEW021 86 73.9 67% 94 29.91 1012.6
12 16:53 NE 10 G 23 10.00 A Few Clouds FEW020 84.9 73.9 70% 92 29.91 1012.8
12 15:53 E 14 G 28 10.00 Mostly Cloudy BKN023 BKN029 84.9 73.9 70% 92 29.92 1013.1
12 14:53 NE 15 G 26 10.00 Mostly Cloudy BKN021 BKN027 BKN032 84.9 75 72% 93 29.94 1013.6
12 13:53 NE 14 G 18 10.00 Mostly Cloudy BKN025 BKN032 BKN050 84.9 75 87.1 79 72% 93 29.93 1013.5
12 12:53 NE 12 G 21 10.00 Overcast BKN015 BKN030 OVC070 84.9 75 72% 93 29.93 1013.6
12 11:53 NE 10 G 18 10.00 Mostly Cloudy BKN018 BKN042 86 75 70% 95 29.93 1013.3
12 10:53 NE 10 10.00 Mostly Cloudy BKN018 BKN033 84.9 75 72% 93 29.93 1013.4
12 09:53 E 8 10.00 Mostly Cloudy BKN010 BKN023 84 75 74% 92 29.93 1013.3
12 07:53 Calm 10.00 Mostly Cloudy BKN075 79 75.9 79 73.9 90% 83 29.91 1012.9
12 06:53 Calm 10.00 Mostly Cloudy BKN025 BKN085 75.9 73.9 94% 75 29.9 1012.5
12 05:53 Calm 10.00 Mostly Cloudy BKN025 75 73 94% 73 29.89 1012.1
12 04:53 Calm 10.00 Fair CLR 73.9 73 97% 29.88 1011.9
12 03:53 Calm 10.00 Fair CLR 77 73.9 90% 78 29.87 1011.5
12 02:53 SE 3 10.00 Partly Cloudy SCT110 77 73.9 90% 78 29.87 1011.4
12 01:53 S 5 10.00 Fair CLR 79 73.9 82.9 79 85% 83 29.89 1011.9
12 00:53 S 6 10.00 Overcast OVC070 80.1 73.9 82% 85 29.9 1012.4
11 23:53 S 7 10.00 Fair CLR 82 73.9 77% 88 29.9 1012.3
11 22:53 SE 5 10.00 Overcast OVC075 82 75 79% 89 29.88 1011.9
11 21:53 SE 5 10.00 A Few Clouds FEW065 81 77 88% 88 29.86 1011.1
11 20:53 SE 7 10.00 Fair CLR 82 77 85% 90 29.85 1010.7
11 19:53 E 10 10.00 A Few Clouds FEW017 82.9 77 89.1 82.9 82% 92 29.85 1010.7
11 18:53 E 8 10.00 Mostly Cloudy FEW018 BKN060 84 75.9 77% 93 29.84 1010.3
11 17:53 E 12 10.00 A Few Clouds FEW019 86 77 75% 97 29.82 1009.8
11 16:53 E 10 10.00 A Few Clouds FEW021 88 75.9 68% 99 29.82 1009.8
11 15:53 E 13 10.00 Fair CLR 88 75.9 68% 99 29.82 1009.7
11 14:53 E 9 10.00 A Few Clouds FEW055 87.1 75.9 70% 98 29.84 1010.4
11 13:53 E 10 10.00 Mostly Cloudy SCT022 BKN045 BKN090 86 75.9 91.9 81 72% 96 29.84 1010.5
11 12:53 NE 13 G 17 10.00 Mostly Cloudy BKN037 BKN047 BKN070 91 73.9 57% 101 29.84 1010.3
11 11:53 Vrbl 3 10.00 Partly Cloudy SCT034 90 73.9 59% 99 29.85 1010.6
11 10:53 Vrbl 6 10.00 Fair CLR 87.1 73.9 65% 95 29.86 1010.9
11 09:53 Vrbl 6 10.00 Fair CLR 82.9 73.9 74% 89 29.86 1011.0
11 08:53 W 7 10.00 Fair CLR 82 73.9 77% 88 29.85 1010.8
11 06:53 W 7 10.00 Fair CLR 79 73 82% 82 29.83 1010.0
11 05:53 W 7 10.00 Fair CLR 79 72 79% 82 29.83 1009.9
11 04:53 SW 9 10.00 Fair CLR 79 72 79% 82 29.83 1010.2
11 03:53 SW 6 10.00 Fair CLR 79 71.1 77% 82 29.83 1009.9
11 02:53 W 6 10.00 Fair CLR 80.1 71.1 74% 84 29.83 1010.1
11 01:53 W 10 10.00 Fair CLR 81 70 93.9 81 69% 84 29.82 1009.6
11 00:53 W 10 10.00 Fair CLR 82 69.1 65% 85 29.82 1009.6
10 23:53 W 5 10.00 Fair CLR 82 75 79% 89 29.81 1009.2
10 22:53 S 9 10.00 Fair CLR 82 75.9 82% 89 29.81 1009.3
10 21:53 S 12 10.00 Fair CLR 82.9 75 77% 90 29.8 1008.9
10 20:53 S 13 10.00 Fair CLR 84.9 73.9 70% 92 29.78 1008.2
10 19:53 W 6 10.00 Fair CLR 93.9 60.1 99 93.9 32% 94 29.75 1007.4
10 18:53 W 10 10.00 Fair CLR 95 60.1 31% 95 29.74 1007.1
10 17:53 W 13 10.00 Fair CLR 97 59 28% 97 29.74 1007.1
10 16:53 SW 15 G 22 10.00 Fair CLR 98.1 60.1 28% 98 29.74 1007.0
10 15:53 SW 7 G 18 10.00 A Few Clouds FEW075 97 63 33% 99 29.75 1007.3
10 14:53 SW 9 G 21 10.00 Fair CLR 97 62.1 32% 98 29.78 1008.3
10 13:53 W 15 G 23 10.00 Fair CLR 96.1 64.9 96.1 78.1 36% 99 29.8 1009.1
10 12:53 SW 9 G 22 10.00 Fair CLR 93 66.9 42% 97 29.81 1009.5
10 11:53 W 10 10.00 Fair CLR 91.9 66.9 44% 95 29.83 1010.1
10 10:53 W 10 10.00 Fair CLR 89.1 71.1 55% 95 29.84 1010.5
10 09:53 W 8 10.00 Fair CLR 84.9 71.1 63% 90 29.85 1010.7
10 08:53 W 8 10.00 Fair CLR 82 70 67% 86 29.85 1010.7
10 07:53 W 10 10.00 Fair CLR 79 70 82 73.9 74% 82 29.84 1010.4
10 06:53 W 7 10.00 Fair CLR 75.9 70 82% 77 29.82 1009.7
10 05:53 W 6 10.00 Fair CLR 77 69.1 77% 79 29.81 1009.4
10 04:53 SW 5 10.00 Fair CLR 75.9 69.1 79% 77 29.8 1008.9
10 03:53 SW 5 10.00 Fair CLR 75.9 68 77% 77 29.81 1009.3
Date Time (edt) Wind (mph) Vis. (mi.) Weather Sky Cond. Air Dwpt Max. Min. Relative Humidity Wind Chill (°F) Heat Index (°F) altimeter (in) sea level (mb) 1 hr 3 hr 6 hr
6 hour
Temperature (ºF) Pressure Precipitation (in)